Precipitable_Water
0.42 0.41 0.41 0.40 0.40 0.40 0.40 0.40 0.39 0.39 0.38 0.37 0.37 0.36 0.37 0.39 0.41 0.41 0.41 0.41 0.43 0.45 0.48 0.48 0.49 0.50 0.50 0.50 0.51 0.51 0.55 0.49 0.45 0.42 0.39 0.40 0.43 0.44 0.50 0.42 0.39 0.49 0.61 0.67 0.81 0.89 0.84 0.94 0.99 1.19 1.09 1.05 1.03 1.04 1.38 1.59 1.74 1.62 1.23 1.10 0.98 1.07 1.04 1.15 1.10 1.13 1.23 1.18 1.29 1.40 1.45 1.38 1.28 1.48 1.56 1.70 1.58 1.54 1.53 1.53 1.60 1.66 1.60 1.64 1.63 1.72 1.75 1.77
0.41 0.41 0.40 0.40 0.41 0.40 0.40 0.39 0.38 0.37 0.36 0.37 0.36 0.36 0.37 0.40 0.41 0.43 0.43 0.43 0.43 0.44 0.46 0.48 0.48 0.50 0.51 0.50 0.50 0.51 0.50 0.44 0.37 0.41 0.36 0.41 0.46 0.48 0.50 0.51 0.41 0.54 0.66 0.60 0.57 0.65 0.68 0.79 0.91 1.01 0.97 0.84 1.09 0.90 1.30 1.29 1.67 1.32 1.18 1.12 0.95 1.10 1.17 1.30 1.26 1.27 1.21 1.17 1.31 1.40 1.47 1.41 1.36 1.46 1.54 1.38 1.37 1.39 1.36 1.44 1.51 1.48 1.55 1.61 1.60 1.65 1.63 1.67
0.42 0.42 0.42 0.42 0.41 0.40 0.39 0.38 0.37 0.36 0.36 0.36 0.35 0.37 0.38 0.39 0.42 0.43 0.44 0.43 0.43 0.44 0.46 0.48 0.48 0.49 0.49 0.51 0.50 0.51 0.45 0.36 0.35 0.30 0.45 0.71 0.65 0.56 0.50 0.53 0.44 0.61 0.59 0.43 0.52 0.53 0.54 0.65 0.82 0.87 0.87 0.76 0.88 0.80 1.06 1.18 1.43 1.39 1.18 1.00 1.04 1.22 1.25 1.33 1.33 1.29 1.35 1.31 1.28 1.34 1.42 1.41 1.47 1.46 1.60 1.34 1.31 1.35 1.26 1.28 1.37 1.36 1.39 1.45 1.51 1.56 1.57 1.59
0.43 0.42 0.42 0.41 0.40 0.39 0.39 0.38 0.37 0.35 0.35 0.34 0.35 0.37 0.37 0.40 0.41 0.42 0.43 0.42 0.42 0.43 0.45 0.47 0.48 0.49 0.50 0.49 0.51 0.51 0.41 0.30 0.30 0.44 0.69 0.76 0.77 0.69 0.54 0.52 0.47 0.62 0.73 0.65 0.62 0.58 0.68 0.77 0.76 0.72 0.70 0.70 0.74 0.89 0.81 1.14 1.13 1.32 1.19 1.03 1.10 1.27 1.17 1.29 1.34 1.33 1.35 1.36 1.31 1.35 1.43 1.35 1.44 1.48 1.45 1.37 1.25 1.24 1.29 1.40 1.34 1.30 1.37 1.43 1.49 1.49 1.52 1.52
0.44 0.44 0.43 0.42 0.40 0.39 0.38 0.37 0.35 0.35 0.33 0.34 0.35 0.36 0.38 0.40 0.40 0.40 0.40 0.41 0.41 0.41 0.44 0.46 0.48 0.50 0.48 0.51 0.49 0.47 0.29 0.20 0.32 0.50 0.66 0.73 0.80 0.78 0.63 0.53 0.49 0.61 0.74 0.68 0.64 0.60 0.61 0.66 0.74 0.73 0.63 0.56 0.68 0.75 0.78 1.01 1.19 1.25 1.09 1.23 1.26 1.29 1.17 1.31 1.35 1.38 1.35 1.40 1.36 1.35 1.26 1.27 1.53 1.49 1.41 1.36 1.16 1.14 1.26 1.39 1.45 1.45 1.48 1.46 1.45 1.47 1.49 1.46
0.45 0.44 0.44 0.43 0.40 0.39 0.37 0.36 0.35 0.34 0.33 0.33 0.35 0.37 0.38 0.38 0.38 0.37 0.37 0.37 0.39 0.40 0.44 0.45 0.46 0.46 0.50 0.52 0.49 0.40 0.20 0.14 0.41 0.48 0.72 0.79 0.83 0.79 0.70 0.60 0.54 0.59 0.73 0.63 0.52 0.53 0.55 0.61 0.60 0.54 0.53 0.55 0.57 0.56 0.69 0.89 1.13 0.84 1.10 1.22 1.30 1.33 1.22 1.33 1.37 1.40 1.40 1.33 1.29 1.24 1.34 1.42 1.36 1.33 1.44 1.39 1.29 1.35 1.49 1.53 1.54 1.52 1.54 1.56 1.55 1.49 1.44 1.43
0.44 0.45 0.45 0.44 0.42 0.39 0.37 0.36 0.35 0.34 0.33 0.33 0.35 0.36 0.36 0.36 0.35 0.36 0.35 0.36 0.38 0.40 0.44 0.45 0.46 0.47 0.47 0.48 0.43 0.29 0.16 0.20 0.37 0.57 0.71 0.83 0.80 0.78 0.73 0.69 0.58 0.56 0.62 0.54 0.52 0.46 0.45 0.44 0.49 0.49 0.49 0.50 0.58 0.60 0.67 0.77 1.00 0.91 0.90 1.16 1.21 1.33 1.25 1.35 1.34 1.40 1.38 1.32 1.28 1.37 1.42 1.28 1.31 1.17 1.42 1.34 1.45 1.49 1.55 1.60 1.58 1.59 1.61 1.61 1.51 1.47 1.41 1.39
0.44 0.45 0.46 0.45 0.44 0.41 0.38 0.37 0.36 0.35 0.34 0.34 0.34 0.35 0.35 0.35 0.34 0.34 0.35 0.35 0.37 0.38 0.44 0.44 0.46 0.46 0.49 0.39 0.24 0.18 0.17 0.12 0.34 0.57 0.69 0.82 0.84 0.77 0.73 0.75 0.56 0.51 0.51 0.46 0.45 0.38 0.40 0.33 0.33 0.48 0.44 0.41 0.50 0.57 0.67 0.67 0.84 0.77 0.84 1.08 1.19 1.28 1.30 1.33 1.34 1.33 1.34 1.33 1.36 1.34 1.25 1.24 1.29 1.28 1.36 1.31 1.46 1.52 1.54 1.62 1.61 1.57 1.58 1.57 1.50 1.45 1.43 1.40
0.44 0.45 0.46 0.45 0.45 0.43 0.39 0.38 0.36 0.36 0.35 0.34 0.35 0.34 0.35 0.35 0.34 0.34 0.35 0.35 0.36 0.39 0.43 0.46 0.47 0.48 0.50 0.37 0.20 0.12 0.11 0.20 0.35 0.49 0.61 0.72 0.81 0.82 0.75 0.57 0.59 0.45 0.43 0.48 0.49 0.43 0.36 0.30 0.31 0.35 0.35 0.42 0.55 0.50 0.61 0.62 0.60 0.78 0.85 1.05 1.12 1.16 1.24 1.28 1.27 1.26 1.27 1.28 1.31 1.22 1.18 1.27 1.32 1.42 1.26 1.36 1.44 1.52 1.59 1.59 1.60 1.56 1.51 1.49 1.46 1.44 1.40 1.37
0.44 0.45 0.45 0.46 0.45 0.44 0.41 0.38 0.37 0.37 0.36 0.35 0.34 0.35 0.35 0.34 0.34 0.34 0.35 0.36 0.38 0.43 0.46 0.47 0.49 0.51 0.42 0.25 0.20 0.10 0.15 0.43 0.48 0.45 0.52 0.69 0.77 0.83 0.78 0.60 0.56 0.47 0.40 0.43 0.47 0.44 0.32 0.29 0.25 0.34 0.40 0.38 0.53 0.49 0.58 0.62 0.68 0.83 0.84 0.98 1.05 1.12 1.17 1.23 1.17 1.20 1.25 1.23 1.28 1.16 1.14 1.17 1.33 1.27 1.08 1.37 1.46 1.53 1.53 1.53 1.59 1.52 1.45 1.45 1.44 1.43 1.41 1.37
0.43 0.44 0.45 0.46 0.45 0.44 0.41 0.38 0.38 0.37 0.36 0.35 0.35 0.35 0.34 0.34 0.34 0.35 0.35 0.38 0.43 0.46 0.46 0.49 0.51 0.48 0.29 0.25 0.13 0.09 0.31 0.42 0.56 0.51 0.51 0.69 0.74 0.75 0.70 0.64 0.60 0.46 0.39 0.42 0.40 0.42 0.37 0.34 0.37 0.35 0.34 0.32 0.47 0.51 0.53 0.61 0.78 0.83 0.83 0.91 0.98 1.05 1.08 1.14 1.16 1.17 1.20 1.13 1.23 1.20 1.12 1.20 1.26 1.24 1.13 1.29 1.46 1.52 1.46 1.47 1.52 1.50 1.44 1.45 1.43 1.40 1.42 1.38
0.41 0.43 0.44 0.45 0.45 0.44 0.42 0.40 0.39 0.38 0.36 0.36 0.36 0.36 0.34 0.32 0.33 0.35 0.39 0.43 0.45 0.47 0.48 0.48 0.48 0.42 0.33 0.23 0.18 0.16 0.36 0.35 0.44 0.50 0.53 0.66 0.62 0.77 0.82 0.71 0.66 0.54 0.40 0.35 0.39 0.44 0.41 0.37 0.37 0.27 0.17 0.38 0.34 0.51 0.52 0.68 0.66 0.76 0.81 0.69 0.83 0.90 0.88 0.99 1.02 1.09 1.14 1.09 1.20 1.21 1.10 1.02 1.10 1.01 1.22 1.34 1.45 1.46 1.44 1.43 1.46 1.48 1.46 1.44 1.42 1.42 1.41 1.36
0.41 0.42 0.43 0.44 0.44 0.43 0.41 0.40 0.39 0.37 0.35 0.34 0.35 0.35 0.32 0.32 0.34 0.39 0.43 0.43 0.46 0.45 0.46 0.48 0.51 0.48 0.32 0.17 0.25 0.40 0.43 0.45 0.43 0.43 0.49 0.56 0.63 0.79 0.88 0.77 0.66 0.61 0.53 0.42 0.40 0.45 0.44 0.43 0.38 0.25 0.33 0.33 0.38 0.32 0.55 0.62 0.62 0.71 0.73 0.70 0.75 0.78 0.78 0.96 1.05 1.07 1.07 1.11 1.19 1.17 0.78 0.85 0.97 1.11 1.24 1.35 1.38 1.43 1.39 1.38 1.41 1.45 1.46 1.41 1.39 1.39 1.40 1.40
0.40 0.40 0.42 0.44 0.45 0.43 0.40 0.39 0.38 0.36 0.34 0.33 0.33 0.33 0.31 0.33 0.38 0.42 0.46 0.44 0.44 0.45 0.51 0.59 0.56 0.47 0.31 0.19 0.32 0.41 0.50 0.49 0.48 0.35 0.40 0.52 0.58 0.68 0.82 0.79 0.66 0.61 0.57 0.49 0.48 0.51 0.46 0.47 0.45 0.34 0.39 0.32 0.36 0.47 0.42 0.48 0.58 0.51 0.60 0.65 0.62 0.66 0.66 0.94 1.01 1.04 0.98 1.13 1.15 1.15 0.80 0.83 0.97 1.09 1.24 1.34 1.38 1.35 1.29 1.35 1.38 1.40 1.42 1.39 1.36 1.37 1.37 1.38
0.38 0.38 0.39 0.42 0.44 0.42 0.39 0.38 0.36 0.34 0.34 0.33 0.32 0.32 0.32 0.35 0.40 0.46 0.47 0.44 0.45 0.54 0.61 0.60 0.56 0.39 0.25 0.22 0.38 0.43 0.45 0.54 0.36 0.30 0.39 0.35 0.44 0.58 0.67 0.72 0.60 0.56 0.53 0.51 0.49 0.53 0.51 0.49 0.45 0.31 0.25 0.37 0.39 0.36 0.33 0.38 0.44 0.49 0.43 0.39 0.53 0.59 0.67 0.88 1.02 1.02 0.92 1.07 1.16 1.07 0.83 0.85 0.95 1.06 1.22 1.33 1.36 1.36 1.30 1.34 1.38 1.39 1.37 1.36 1.36 1.34 1.36 1.37
0.36 0.35 0.36 0.40 0.43 0.41 0.38 0.36 0.34 0.33 0.33 0.33 0.32 0.32 0.35 0.39 0.45 0.48 0.50 0.43 0.52 0.63 0.61 0.48 0.44 0.41 0.24 0.15 0.22 0.40 0.37 0.23 0.26 0.32 0.39 0.36 0.34 0.47 0.68 0.62 0.59 0.55 0.51 0.46 0.48 0.55 0.52 0.49 0.35 0.32 0.29 0.25 0.26 0.27 0.29 0.30 0.36 0.43 0.40 0.39 0.41 0.52 0.61 0.74 0.91 1.00 1.04 1.06 1.10 1.01 0.83 0.90 0.92 1.08 1.21 1.31 1.31 1.33 1.31 1.33 1.35 1.37 1.35 1.34 1.35 1.35 1.35 1.37
0.34 0.33 0.34 0.38 0.42 0.40 0.37 0.35 0.34 0.33 0.33 0.33 0.32 0.32 0.39 0.42 0.48 0.53 0.50 0.51 0.57 0.65 0.53 0.37 0.47 0.47 0.15 0.26 0.35 0.22 0.22 0.26 0.31 0.30 0.32 0.36 0.36 0.47 0.64 0.55 0.47 0.48 0.49 0.45 0.41 0.46 0.51 0.40 0.41 0.35 0.32 0.24 0.21 0.23 0.20 0.22 0.27 0.34 0.40 0.36 0.44 0.43 0.53 0.60 0.81 0.91 0.98 0.98 0.91 1.02 0.90 0.91 0.98 1.08 1.17 1.25 1.28 1.29 1.27 1.29 1.32 1.34 1.34 1.34 1.36 1.36 1.34 1.31
0.35 0.33 0.32 0.36 0.39 0.38 0.37 0.35 0.34 0.33 0.33 0.32 0.31 0.33 0.34 0.44 0.52 0.60 0.41 0.43 0.55 0.57 0.53 0.53 0.46 0.27 0.20 0.24 0.19 0.20 0.24 0.24 0.27 0.27 0.32 0.38 0.40 0.51 0.60 0.48 0.46 0.44 0.43 0.39 0.40 0.33 0.40 0.34 0.35 0.25 0.26 0.21 0.20 0.16 0.13 0.12 0.19 0.26 0.32 0.33 0.36 0.45 0.52 0.58 0.66 0.78 0.87 0.93 0.89 0.93 0.89 0.91 0.96 1.04 1.10 1.15 1.24 1.24 1.23 1.27 1.28 1.30 1.32 1.33 1.32 1.33 1.34 1.32
0.32 0.31 0.32 0.34 0.38 0.37 0.36 0.36 0.34 0.34 0.34 0.33 0.33 0.38 0.41 0.45 0.48 0.46 0.26 0.23 0.24 0.21 0.16 0.19 0.18 0.11 0.10 0.19 0.25 0.25 0.26 0.27 0.28 0.29 0.28 0.36 0.39 0.55 0.63 0.60 0.44 0.37 0.32 0.32 0.33 0.32 0.36 0.32 0.31 0.25 0.18 0.17 0.15 0.15 0.13 0.22 0.24 0.26 0.33 0.35 0.38 0.37 0.42 0.52 0.70 0.80 0.84 0.81 0.80 0.83 0.80 0.86 0.93 0.95 1.06 1.13 1.20 1.19 1.23 1.30 1.31 1.32 1.34 1.34 1.32 1.31 1.32 1.32
0.32 0.31 0.33 0.35 0.37 0.37 0.35 0.35 0.35 0.34 0.35 0.31 0.28 0.24 0.26 0.19 0.17 0.13 0.18 0.17 0.15 0.17 0.18 0.21 0.22 0.21 0.22 0.22 0.22 0.27 0.30 0.30 0.25 0.28 0.29 0.42 0.40 0.50 0.54 0.55 0.42 0.35 0.30 0.25 0.30 0.32 0.34 0.23 0.20 0.17 0.16 0.19 0.19 0.18 0.19 0.23 0.23 0.28 0.33 0.37 0.38 0.39 0.43 0.56 0.67 0.78 0.83 0.78 0.76 0.79 0.83 0.86 0.90 0.92 0.98 1.06 1.15 1.18 1.23 1.24 1.26 1.28 1.29 1.29 1.30 1.29 1.29 1.31
0.32 0.33 0.34 0.35 0.37 0.36 0.35 0.35 0.35 0.35 0.35 0.32 0.28 0.21 0.15 0.19 0.12 0.10 0.16 0.14 0.16 0.22 0.21 0.22 0.23 0.21 0.19 0.23 0.25 0.26 0.22 0.23 0.26 0.27 0.30 0.39 0.44 0.47 0.44 0.47 0.37 0.27 0.26 0.27 0.28 0.36 0.33 0.23 0.20 0.20 0.22 0.22 0.22 0.20 0.19 0.17 0.23 0.27 0.28 0.33 0.37 0.41 0.38 0.50 0.59 0.73 0.80 0.72 0.71 0.79 0.79 0.80 0.86 0.93 0.97 1.07 1.09 1.05 1.11 1.18 1.22 1.23 1.26 1.28 1.28 1.30 1.30 1.34
0.33 0.34 0.34 0.36 0.37 0.37 0.36 0.36 0.36 0.36 0.36 0.32 0.26 0.21 0.25 0.27 0.33 0.33 0.24 0.11 0.14 0.21 0.24 0.24 0.25 0.21 0.24 0.24 0.27 0.27 0.26 0.20 0.22 0.25 0.32 0.36 0.40 0.37 0.43 0.42 0.34 0.26 0.29 0.28 0.28 0.27 0.25 0.22 0.23 0.24 0.24 0.22 0.22 0.21 0.20 0.17 0.16 0.26 0.27 0.28 0.32 0.37 0.43 0.49 0.54 0.67 0.73 0.72 0.66 0.75 0.72 0.75 0.83 0.90 0.96 1.02 1.02 1.03 1.11 1.16 1.18 1.20 1.22 1.25 1.28 1.31 1.35 1.37
0.34 0.34 0.35 0.38 0.37 0.37 0.37 0.37 0.37 0.37 0.33 0.28 0.23 0.24 0.25 0.35 0.42 0.40 0.29 0.18 0.13 0.19 0.24 0.22 0.20 0.19 0.19 0.23 0.26 0.28 0.20 0.19 0.18 0.24 0.27 0.31 0.32 0.37 0.42 0.37 0.35 0.33 0.29 0.28 0.22 0.22 0.20 0.23 0.28 0.28 0.26 0.22 0.20 0.21 0.20 0.18 0.17 0.19 0.26 0.26 0.26 0.35 0.37 0.37 0.48 0.59 0.67 0.67 0.65 0.71 0.67 0.70 0.80 0.87 0.90 0.98 1.01 1.01 1.11 1.19 1.23 1.25 1.21 1.22 1.24 1.30 1.31 1.31
0.33 0.35 0.37 0.38 0.37 0.38 0.38 0.36 0.39 0.35 0.32 0.31 0.27 0.27 0.36 0.40 0.42 0.36 0.23 0.13 0.11 0.19 0.23 0.21 0.22 0.19 0.18 0.17 0.23 0.23 0.20 0.21 0.22 0.21 0.30 0.29 0.26 0.31 0.35 0.39 0.36 0.35 0.29 0.28 0.25 0.23 0.22 0.28 0.34 0.31 0.28 0.24 0.19 0.20 0.19 0.17 0.14 0.15 0.20 0.25 0.27 0.30 0.37 0.41 0.45 0.51 0.58 0.64 0.68 0.68 0.63 0.62 0.70 0.71 0.77 0.92 1.03 1.05 1.09 1.18 1.24 1.30 1.33 1.35 1.41 1.42 1.41 1.35
0.34 0.35 0.38 0.39 0.39 0.40 0.38 0.37 0.32 0.32 0.35 0.33 0.29 0.36 0.40 0.42 0.43 0.35 0.20 0.15 0.14 0.15 0.27 0.24 0.22 0.20 0.19 0.25 0.24 0.18 0.22 0.23 0.24 0.28 0.30 0.30 0.28 0.26 0.28 0.40 0.39 0.32 0.34 0.32 0.28 0.26 0.25 0.31 0.36 0.32 0.29 0.27 0.22 0.19 0.18 0.18 0.14 0.15 0.16 0.21 0.27 0.32 0.35 0.41 0.48 0.48 0.46 0.47 0.57 0.59 0.48 0.48 0.60 0.64 0.68 0.79 0.91 0.93 1.04 1.08 1.14 1.20 1.25 1.31 1.28 1.30 1.37 1.40
0.34 0.34 0.39 0.41 0.42 0.42 0.41 0.31 0.32 0.36 0.33 0.28 0.33 0.40 0.42 0.43 0.47 0.37 0.23 0.11 0.08 0.15 0.19 0.13 0.21 0.17 0.24 0.19 0.22 0.20 0.21 0.17 0.25 0.28 0.31 0.33 0.35 0.29 0.27 0.28 0.36 0.31 0.35 0.35 0.31 0.29 0.27 0.32 0.32 0.32 0.31 0.28 0.25 0.20 0.20 0.20 0.15 0.14 0.12 0.17 0.24 0.32 0.36 0.38 0.42 0.45 0.40 0.37 0.49 0.58 0.45 0.40 0.56 0.57 0.63 0.71 0.76 0.79 0.94 1.01 1.09 1.17 1.22 1.24 1.24 1.28 1.31 1.32
0.34 0.34 0.39 0.42 0.45 0.46 0.33 0.27 0.40 0.39 0.28 0.31 0.40 0.44 0.45 0.45 0.51 0.38 0.17 0.11 0.08 0.18 0.15 0.20 0.19 0.19 0.24 0.21 0.21 0.21 0.11 0.16 0.26 0.29 0.31 0.35 0.30 0.35 0.24 0.24 0.30 0.35 0.41 0.41 0.35 0.28 0.32 0.30 0.30 0.32 0.33 0.30 0.26 0.21 0.22 0.20 0.16 0.13 0.20 0.20 0.20 0.26 0.32 0.35 0.38 0.41 0.42 0.50 0.50 0.51 0.49 0.40 0.40 0.50 0.62 0.68 0.68 0.71 0.81 0.91 1.03 1.13 1.17 1.19 1.22 1.26 1.28 1.31
0.36 0.36 0.38 0.44 0.46 0.49 0.38 0.41 0.38 0.33 0.33 0.39 0.45 0.46 0.48 0.48 0.44 0.37 0.17 0.08 0.06 0.22 0.16 0.18 0.19 0.26 0.21 0.21 0.23 0.18 0.18 0.23 0.16 0.22 0.31 0.34 0.35 0.31 0.26 0.24 0.26 0.28 0.34 0.37 0.23 0.33 0.34 0.29 0.29 0.28 0.30 0.31 0.27 0.25 0.25 0.23 0.17 0.18 0.24 0.23 0.20 0.21 0.26 0.33 0.36 0.37 0.41 0.42 0.38 0.46 0.50 0.39 0.36 0.46 0.59 0.62 0.59 0.65 0.74 0.83 0.95 1.06 1.13 1.15 1.19 1.24 1.27 1.30
0.38 0.39 0.39 0.44 0.48 0.50 0.53 0.43 0.39 0.35 0.42 0.47 0.48 0.48 0.47 0.45 0.35 0.21 0.13 0.08 0.22 0.20 0.29 0.17 0.27 0.23 0.20 0.21 0.17 0.20 0.20 0.23 0.16 0.23 0.31 0.34 0.37 0.30 0.22 0.25 0.28 0.30 0.36 0.34 0.28 0.34 0.35 0.36 0.35 0.33 0.29 0.26 0.32 0.33 0.29 0.25 0.19 0.21 0.28 0.28 0.23 0.22 0.26 0.29 0.32 0.34 0.37 0.36 0.31 0.40 0.47 0.36 0.32 0.42 0.48 0.59 0.55 0.56 0.67 0.81 0.92 1.02 1.08 1.11 1.15 1.21 1.26 1.31
0.42 0.42 0.41 0.46 0.48 0.49 0.47 0.49 0.42 0.47 0.49 0.50 0.49 0.48 0.43 0.35 0.25 0.15 0.11 0.08 0.22 0.14 0.20 0.21 0.19 0.16 0.20 0.15 0.14 0.16 0.16 0.19 0.22 0.24 0.28 0.25 0.30 0.34 0.30 0.35 0.27 0.27 0.28 0.33 0.32 0.34 0.37 0.42 0.44 0.38 0.30 0.29 0.33 0.36 0.34 0.29 0.25 0.28 0.23 0.28 0.28 0.26 0.23 0.26 0.29 0.31 0.31 0.26 0.30 0.38 0.45 0.42 0.29 0.36 0.43 0.47 0.49 0.57 0.68 0.78 0.91 1.01 1.08 1.12 1.17 1.20 1.24 1.27
0.44 0.44 0.44 0.49 0.43 0.48 0.47 0.38 0.43 0.50 0.52 0.51 0.49 0.43 0.35 0.27 0.17 0.12 0.08 0.11 0.19 0.18 0.21 0.20 0.18 0.22 0.18 0.15 0.13 0.16 0.17 0.17 0.19 0.22 0.21 0.27 0.25 0.28 0.28 0.25 0.31 0.25 0.26 0.28 0.28 0.30 0.35 0.37 0.38 0.41 0.43 0.40 0.34 0.35 0.38 0.36 0.32 0.28 0.23 0.24 0.29 0.26 0.28 0.25 0.24 0.26 0.20 0.18 0.29 0.34 0.39 0.42 0.29 0.28 0.43 0.50 0.58 0.62 0.69 0.72 0.80 0.90 0.99 1.07 1.14 1.19 1.24 1.27
0.47 0.48 0.48 0.50 0.52 0.58 0.41 0.39 0.49 0.54 0.54 0.52 0.45 0.34 0.28 0.16 0.18 0.11 0.10 0.25 0.12 0.15 0.16 0.17 0.20 0.19 0.18 0.20 0.17 0.16 0.14 0.17 0.20 0.20 0.20 0.23 0.22 0.21 0.23 0.19 0.23 0.18 0.18 0.21 0.23 0.30 0.27 0.30 0.37 0.41 0.48 0.43 0.36 0.32 0.37 0.38 0.34 0.29 0.26 0.24 0.20 0.22 0.20 0.16 0.20 0.15 0.15 0.15 0.25 0.29 0.34 0.34 0.32 0.33 0.44 0.48 0.55 0.63 0.69 0.74 0.80 0.86 0.93 1.01 1.08 1.14 1.20 1.24
0.53 0.52 0.52 0.54 0.56 0.51 0.52 0.53 0.56 0.55 0.55 0.51 0.39 0.33 0.22 0.16 0.10 0.15 0.14 0.17 0.13 0.18 0.17 0.20 0.18 0.18 0.18 0.17 0.16 0.17 0.20 0.15 0.23 0.22 0.23 0.26 0.23 0.24 0.27 0.25 0.26 0.22 0.16 0.22 0.22 0.24 0.25 0.30 0.34 0.39 0.45 0.47 0.43 0.31 0.33 0.33 0.34 0.29 0.25 0.23 0.18 0.15 0.14 0.12 0.14 0.17 0.18 0.23 0.27 0.23 0.30 0.27 0.32 0.36 0.43 0.44 0.53 0.62 0.69 0.76 0.82 0.86 0.91 0.96 1.01 1.08 1.16 1.22
0.57 0.55 0.51 0.53 0.53 0.54 0.55 0.59 0.58 0.58 0.52 0.47 0.35 0.27 0.20 0.14 0.13 0.22 0.17 0.17 0.16 0.20 0.20 0.18 0.19 0.19 0.18 0.15 0.17 0.18 0.14 0.18 0.18 0.21 0.24 0.21 0.24 0.21 0.25 0.27 0.26 0.23 0.22 0.24 0.21 0.21 0.19 0.20 0.26 0.34 0.34 0.47 0.43 0.39 0.37 0.36 0.36 0.34 0.33 0.29 0.23 0.17 0.14 0.10 0.13 0.12 0.11 0.15 0.22 0.23 0.18 0.19 0.21 0.25 0.39 0.43 0.50 0.59 0.68 0.75 0.82 0.87 0.92 0.95 0.98 1.03 1.09 1.17
0.59 0.54 0.55 0.55 0.55 0.58 0.58 0.60 0.59 0.59 0.52 0.43 0.31 0.23 0.16 0.15 0.18 0.16 0.16 0.17 0.19 0.19 0.18 0.21 0.18 0.17 0.17 0.17 0.18 0.20 0.18 0.15 0.17 0.19 0.21 0.21 0.20 0.22 0.22 0.24 0.28 0.26 0.26 0.19 0.25 0.25 0.22 0.23 0.31 0.36 0.40 0.43 0.42 0.46 0.46 0.42 0.40 0.38 0.38 0.37 0.28 0.22 0.25 0.14 0.17 0.15 0.15 0.15 0.14 0.17 0.15 0.30 0.22 0.35 0.38 0.44 0.49 0.53 0.61 0.67 0.75 0.80 0.87 0.93 0.94 0.98 1.02 1.10
0.57 0.53 0.58 0.53 0.53 0.56 0.59 0.59 0.59 0.56 0.47 0.38 0.26 0.21 0.18 0.20 0.17 0.20 0.18 0.22 0.19 0.16 0.17 0.18 0.18 0.16 0.16 0.16 0.19 0.18 0.23 0.17 0.16 0.17 0.17 0.22 0.25 0.23 0.29 0.29 0.27 0.28 0.25 0.20 0.24 0.20 0.23 0.20 0.33 0.36 0.41 0.41 0.44 0.48 0.46 0.47 0.31 0.37 0.38 0.31 0.30 0.36 0.32 0.20 0.22 0.25 0.23 0.18 0.13 0.23 0.16 0.19 0.25 0.24 0.31 0.35 0.42 0.48 0.54 0.61 0.69 0.74 0.81 0.86 0.87 0.92 0.97 1.03
0.54 0.55 0.49 0.55 0.55 0.58 0.59 0.59 0.57 0.51 0.43 0.34 0.24 0.19 0.24 0.25 0.27 0.23 0.23 0.20 0.19 0.19 0.18 0.14 0.15 0.16 0.15 0.15 0.17 0.18 0.19 0.21 0.18 0.16 0.14 0.21 0.19 0.27 0.27 0.30 0.34 0.28 0.30 0.28 0.24 0.29 0.22 0.21 0.31 0.34 0.33 0.42 0.48 0.49 0.50 0.48 0.47 0.45 0.33 0.33 0.42 0.45 0.40 0.30 0.18 0.22 0.17 0.14 0.20 0.20 0.12 0.14 0.15 0.10 0.24 0.28 0.34 0.41 0.49 0.57 0.62 0.69 0.77 0.80 0.83 0.87 0.92 0.98
0.56 0.53 0.55 0.54 0.56 0.60 0.60 0.58 0.54 0.47 0.38 0.30 0.24 0.26 0.29 0.22 0.30 0.26 0.27 0.24 0.21 0.21 0.18 0.17 0.18 0.21 0.17 0.17 0.16 0.18 0.21 0.17 0.18 0.17 0.14 0.20 0.17 0.33 0.28 0.28 0.36 0.31 0.31 0.34 0.27 0.27 0.28 0.20 0.26 0.34 0.37 0.41 0.46 0.46 0.44 0.50 0.51 0.45 0.42 0.49 0.34 0.27 0.27 0.32 0.29 0.17 0.14 0.13 0.15 0.20 0.18 0.15 0.16 0.14 0.20 0.23 0.28 0.36 0.45 0.54 0.59 0.63 0.70 0.74 0.79 0.84 0.90 0.96
0.59 0.51 0.45 0.54 0.61 0.61 0.58 0.56 0.49 0.40 0.33 0.25 0.25 0.23 0.27 0.26 0.31 0.29 0.29 0.27 0.25 0.23 0.20 0.21 0.19 0.22 0.21 0.19 0.20 0.21 0.21 0.17 0.20 0.16 0.14 0.19 0.15 0.28 0.29 0.33 0.30 0.33 0.33 0.32 0.27 0.28 0.30 0.22 0.24 0.35 0.36 0.40 0.42 0.41 0.32 0.38 0.49 0.52 0.54 0.48 0.49 0.40 0.30 0.27 0.27 0.26 0.26 0.18 0.17 0.14 0.16 0.11 0.15 0.16 0.21 0.22 0.28 0.35 0.42 0.50 0.55 0.60 0.66 0.70 0.74 0.78 0.85 0.92
0.54 0.45 0.44 0.60 0.62 0.61 0.59 0.54 0.43 0.37 0.30 0.23 0.25 0.25 0.32 0.27 0.30 0.32 0.32 0.29 0.25 0.24 0.23 0.23 0.25 0.22 0.23 0.22 0.22 0.19 0.22 0.21 0.21 0.19 0.19 0.21 0.19 0.33 0.28 0.36 0.30 0.31 0.32 0.33 0.30 0.32 0.26 0.34 0.22 0.29 0.38 0.39 0.32 0.38 0.34 0.37 0.38 0.42 0.44 0.45 0.47 0.43 0.45 0.38 0.35 0.27 0.21 0.17 0.18 0.15 0.12 0.12 0.15 0.19 0.19 0.20 0.25 0.33 0.40 0.46 0.52 0.58 0.63 0.69 0.71 0.74 0.81 0.87
0.60 0.47 0.47 0.63 0.63 0.62 0.58 0.47 0.37 0.31 0.28 0.31 0.32 0.30 0.32 0.29 0.32 0.33 0.34 0.34 0.30 0.33 0.28 0.27 0.27 0.24 0.25 0.24 0.24 0.27 0.23 0.23 0.22 0.21 0.20 0.21 0.20 0.17 0.31 0.30 0.32 0.28 0.32 0.30 0.29 0.32 0.27 0.28 0.23 0.27 0.30 0.30 0.33 0.42 0.42 0.41 0.44 0.44 0.43 0.43 0.45 0.41 0.35 0.29 0.25 0.34 0.29 0.25 0.20 0.18 0.12 0.17 0.20 0.21 0.18 0.18 0.24 0.30 0.34 0.41 0.48 0.55 0.60 0.65 0.71 0.75 0.79 0.82
0.51 0.40 0.45 0.64 0.65 0.61 0.48 0.35 0.36 0.38 0.31 0.27 0.26 0.30 0.29 0.39 0.33 0.33 0.35 0.37 0.35 0.32 0.36 0.32 0.32 0.29 0.28 0.27 0.27 0.26 0.25 0.22 0.24 0.22 0.23 0.18 0.26 0.21 0.28 0.33 0.30 0.32 0.30 0.26 0.28 0.37 0.36 0.36 0.29 0.24 0.28 0.30 0.35 0.43 0.47 0.46 0.46 0.47 0.47 0.45 0.48 0.45 0.43 0.35 0.25 0.28 0.29 0.29 0.32 0.27 0.21 0.19 0.28 0.27 0.26 0.25 0.24 0.24 0.30 0.36 0.42 0.49 0.55 0.61 0.66 0.71 0.77 0.78
0.50 0.46 0.62 0.67 0.65 0.57 0.42 0.35 0.36 0.32 0.29 0.32 0.39 0.37 0.39 0.36 0.35 0.38 0.35 0.36 0.32 0.37 0.33 0.32 0.31 0.30 0.32 0.30 0.30 0.28 0.28 0.23 0.23 0.21 0.24 0.24 0.24 0.26 0.31 0.31 0.30 0.28 0.32 0.30 0.34 0.35 0.43 0.31 0.25 0.26 0.31 0.35 0.39 0.43 0.46 0.47 0.46 0.43 0.46 0.49 0.47 0.44 0.45 0.39 0.35 0.37 0.31 0.30 0.28 0.27 0.22 0.21 0.29 0.30 0.27 0.28 0.30 0.30 0.32 0.34 0.40 0.45 0.48 0.52 0.59 0.66 0.72 0.75
0.55 0.53 0.56 0.65 0.65 0.55 0.39 0.27 0.25 0.27 0.30 0.34 0.35 0.34 0.41 0.38 0.36 0.35 0.35 0.37 0.35 0.34 0.33 0.34 0.35 0.37 0.34 0.37 0.34 0.29 0.33 0.22 0.29 0.26 0.23 0.25 0.22 0.33 0.31 0.30 0.31 0.26 0.27 0.31 0.28 0.44 0.31 0.34 0.28 0.23 0.23 0.27 0.32 0.40 0.40 0.45 0.46 0.41 0.41 0.45 0.48 0.49 0.48 0.46 0.43 0.42 0.30 0.33 0.30 0.28 0.20 0.24 0.30 0.32 0.30 0.27 0.28 0.30 0.31 0.34 0.37 0.39 0.45 0.52 0.58 0.65 0.69 0.71
0.57 0.61 0.58 0.57 0.61 0.52 0.36 0.37 0.31 0.28 0.28 0.30 0.32 0.31 0.34 0.35 0.40 0.39 0.37 0.36 0.41 0.39 0.37 0.36 0.40 0.42 0.38 0.41 0.36 0.36 0.35 0.31 0.26 0.29 0.27 0.26 0.25 0.32 0.31 0.31 0.34 0.28 0.31 0.37 0.44 0.50 0.36 0.35 0.32 0.21 0.18 0.18 0.20 0.24 0.28 0.33 0.37 0.41 0.42 0.43 0.47 0.47 0.46 0.44 0.37 0.38 0.29 0.31 0.33 0.29 0.28 0.33 0.33 0.32 0.30 0.28 0.26 0.29 0.32 0.34 0.35 0.37 0.42 0.46 0.53 0.60 0.68 0.74
0.49 0.39 0.49 0.50 0.52 0.50 0.45 0.46 0.39 0.33 0.30 0.30 0.29 0.33 0.34 0.31 0.37 0.41 0.41 0.39 0.42 0.42 0.42 0.42 0.43 0.43 0.39 0.38 0.35 0.34 0.33 0.36 0.30 0.28 0.27 0.24 0.27 0.28 0.31 0.33 0.33 0.30 0.31 0.34 0.43 0.44 0.35 0.36 0.34 0.31 0.27 0.26 0.32 0.34 0.40 0.42 0.39 0.35 0.36 0.40 0.42 0.46 0.48 0.47 0.44 0.37 0.31 0.34 0.29 0.32 0.34 0.30 0.28 0.28 0.28 0.28 0.26 0.24 0.27 0.31 0.32 0.34 0.36 0.40 0.45 0.51 0.59 0.66
0.56 0.44 0.43 0.38 0.47 0.45 0.39 0.41 0.38 0.37 0.32 0.37 0.28 0.33 0.29 0.31 0.34 0.36 0.44 0.34 0.43 0.40 0.40 0.41 0.42 0.37 0.38 0.37 0.34 0.33 0.34 0.31 0.33 0.30 0.28 0.27 0.28 0.29 0.34 0.34 0.34 0.33 0.34 0.35 0.40 0.36 0.34 0.29 0.30 0.31 0.31 0.33 0.36 0.37 0.41 0.42 0.37 0.38 0.37 0.36 0.40 0.42 0.44 0.44 0.41 0.37 0.43 0.34 0.26 0.34 0.33 0.26 0.27 0.29 0.29 0.28 0.27 0.27 0.27 0.30 0.32 0.33 0.35 0.36 0.39 0.45 0.49 0.53
0.44 0.50 0.54 0.52 0.40 0.33 0.35 0.35 0.40 0.37 0.39 0.40 0.33 0.37 0.31 0.30 0.31 0.29 0.38 0.42 0.43 0.44 0.36 0.40 0.41 0.43 0.41 0.38 0.37 0.31 0.32 0.31 0.30 0.27 0.30 0.30 0.29 0.30 0.29 0.32 0.30 0.33 0.34 0.34 0.38 0.30 0.27 0.23 0.28 0.29 0.27 0.32 0.36 0.37 0.40 0.41 0.41 0.39 0.38 0.38 0.37 0.40 0.41 0.40 0.42 0.45 0.44 0.36 0.31 0.35 0.34 0.30 0.31 0.31 0.32 0.31 0.31 0.30 0.29 0.29 0.33 0.34 0.35 0.37 0.40 0.42 0.45 0.48
0.58 0.57 0.55 0.59 0.42 0.43 0.41 0.41 0.43 0.39 0.37 0.39 0.36 0.35 0.30 0.30 0.29 0.34 0.34 0.35 0.39 0.39 0.41 0.32 0.37 0.41 0.42 0.43 0.39 0.33 0.33 0.26 0.27 0.32 0.30 0.29 0.29 0.29 0.26 0.28 0.31 0.35 0.35 0.32 0.33 0.33 0.28 0.22 0.25 0.29 0.28 0.29 0.32 0.35 0.38 0.40 0.41 0.40 0.38 0.39 0.40 0.40 0.39 0.41 0.43 0.48 0.47 0.44 0.46 0.41 0.38 0.34 0.35 0.32 0.35 0.35 0.35 0.33 0.33 0.34 0.35 0.35 0.36 0.40 0.40 0.39 0.40 0.43
0.51 0.51 0.47 0.57 0.52 0.47 0.45 0.43 0.40 0.39 0.35 0.39 0.32 0.34 0.33 0.32 0.30 0.34 0.38 0.36 0.31 0.36 0.45 0.37 0.39 0.41 0.42 0.42 0.41 0.34 0.35 0.35 0.33 0.28 0.33 0.32 0.30 0.31 0.28 0.28 0.26 0.35 0.35 0.30 0.31 0.34 0.24 0.21 0.28 0.29 0.26 0.25 0.29 0.35 0.37 0.38 0.40 0.37 0.38 0.39 0.40 0.41 0.41 0.44 0.48 0.52 0.54 0.50 0.48 0.44 0.40 0.36 0.41 0.46 0.48 0.48 0.47 0.47 0.41 0.36 0.39 0.44 0.46 0.47 0.45 0.42 0.40 0.39
0.67 0.69 0.63 0.48 0.42 0.44 0.45 0.42 0.38 0.37 0.35 0.36 0.32 0.35 0.34 0.33 0.31 0.36 0.35 0.42 0.37 0.35 0.40 0.37 0.41 0.41 0.43 0.41 0.39 0.37 0.40 0.39 0.37 0.35 0.35 0.34 0.27 0.33 0.30 0.30 0.34 0.29 0.33 0.31 0.31 0.30 0.30 0.23 0.28 0.28 0.22 0.22 0.29 0.31 0.34 0.37 0.39 0.38 0.36 0.36 0.38 0.39 0.39 0.48 0.51 0.61 0.56 0.49 0.48 0.45 0.38 0.35 0.52 0.56 0.57 0.56 0.55 0.52 0.47 0.47 0.48 0.50 0.54 0.54 0.50 0.47 0.45 0.41
0.73 0.74 0.70 0.56 0.40 0.45 0.39 0.42 0.41 0.38 0.32 0.38 0.38 0.36 0.33 0.34 0.37 0.38 0.32 0.42 0.43 0.44 0.44 0.42 0.41 0.38 0.36 0.36 0.34 0.37 0.40 0.40 0.38 0.38 0.39 0.40 0.40 0.38 0.38 0.35 0.35 0.32 0.30 0.30 0.32 0.27 0.28 0.24 0.21 0.22 0.19 0.20 0.29 0.32 0.34 0.35 0.35 0.34 0.34 0.35 0.37 0.42 0.49 0.52 0.61 0.72 0.73 0.69 0.50 0.39 0.37 0.66 0.62 0.70 0.59 0.59 0.59 0.59 0.56 0.57 0.58 0.60 0.64 0.63 0.58 0.56 0.54 0.50
Wind_Speed
17 18 18 18 18 18 18 18 18 17 17 16 16 16 16 15 15 15 14 14 14 13 14 13 13 12 12 11 11 11 10 10 10 9 10 10 10 13 13 13 16 18 17 17 17 17 17 16 17 16 15 14 13 12 13 12 11 10 9 9 8 8 7 6 5 5 4 6 8 9 10 9 9 8 7 7 7 8 8 6 6 5 4 7 9 12 15 16
18 18 18 19 19 19 19 19 18 18 18 17 17 17 16 16 16 16 15 14 14 14 14 14 13 13 12 11 11 11 10 10 11 11 12 11 10 12 14 14 16 19 18 19 19 18 18 17 17 17 15 14 13 13 13 13 12 12 10 10 9 8 7 7 6 5 5 6 8 9 9 10 9 8 8 7 7 8 7 6 6 6 6 8 11 14 15 16
19 19 19 19 19 19 19 19 19 18 18 18 18 18 17 17 17 16 16 15 15 15 15 14 14 13 12 12 11 10 10 10 11 11 10 10 11 12 14 15 16 19 19 19 20 20 19 19 19 18 16 14 14 14 14 13 13 12 11 11 10 9 8 8 7 6 6 6 9 10 9 9 9 8 8 7 7 8 7 7 7 7 8 10 12 14 16 17
19 19 20 20 20 20 20 19 19 19 19 18 18 18 18 18 17 17 17 16 15 15 15 14 14 13 12 12 11 10 10 10 9 10 10 9 10 12 15 16 17 19 19 18 19 19 19 19 19 17 15 14 14 14 15 14 13 13 12 11 10 9 9 8 7 7 7 7 9 10 9 9 9 8 8 8 7 7 7 9 9 9 10 12 13 14 16 16
20 20 20 20 20 20 20 20 19 19 19 19 18 18 18 18 18 17 17 17 16 15 15 14 13 13 12 12 11 11 11 10 9 9 11 11 10 11 15 17 18 20 19 18 18 19 20 20 19 16 15 14 14 15 15 16 15 13 13 13 12 11 9 8 7 7 7 7 8 9 9 8 8 8 9 10 8 5 7 9 9 10 12 13 14 14 16 16
20 20 20 20 20 20 20 20 20 20 19 19 18 18 18 18 17 17 17 17 16 16 15 14 13 12 12 11 11 12 12 11 9 10 11 12 11 11 15 17 18 20 19 19 19 19 20 21 19 17 15 14 16 15 14 16 16 14 14 14 14 13 12 11 9 8 7 7 9 9 9 9 9 8 9 10 8 5 6 9 10 10 12 14 14 15 16 16
21 21 21 21 21 21 21 20 20 20 19 19 18 18 18 18 18 18 17 17 16 16 15 14 14 13 12 12 12 12 13 13 11 10 11 11 11 12 15 17 18 20 20 20 21 21 21 21 20 18 16 15 16 16 13 15 16 15 14 14 15 14 14 13 12 10 9 9 9 9 10 10 11 9 9 11 8 5 6 9 10 11 13 14 15 15 16 16
21 21 22 22 22 21 21 21 20 20 20 19 19 19 19 19 18 18 18 17 17 16 15 15 15 15 14 13 13 14 14 15 13 11 11 10 11 12 15 17 19 20 20 21 21 22 21 21 21 19 18 16 16 17 15 14 16 16 15 14 15 15 15 14 13 12 11 10 10 11 11 11 12 9 9 11 9 7 7 9 10 11 12 14 15 16 16 16
22 22 22 22 22 22 22 22 21 21 20 20 20 19 20 19 19 19 18 18 17 16 15 15 15 15 15 14 14 15 15 14 14 13 11 11 12 14 16 17 19 20 20 21 21 22 21 21 21 20 19 18 16 17 17 16 15 16 16 15 15 15 15 14 14 13 12 11 10 11 12 12 12 9 9 11 10 8 9 10 11 12 12 13 14 16 16 17
23 23 23 23 23 22 22 22 22 21 21 21 20 20 21 20 20 19 19 18 17 16 15 15 15 15 15 15 15 15 15 15 15 14 13 12 13 15 17 18 20 20 20 21 21 22 22 21 22 20 18 19 18 17 18 17 14 14 15 16 17 17 17 16 15 15 13 12 12 12 12 11 12 11 9 11 11 10 11 11 12 12 13 13 13 15 16 17
23 23 23 23 23 23 23 22 22 22 22 21 21 21 21 21 21 20 19 17 16 15 15 15 15 16 16 16 16 16 15 16 16 15 14 14 14 16 18 20 21 21 21 21 22 23 22 22 21 19 18 19 19 18 19 19 16 14 14 14 17 17 18 18 17 16 14 13 13 13 12 10 12 12 11 11 12 12 12 12 13 13 12 12 13 14 15 16
24 24 24 24 24 24 23 23 23 22 22 22 21 21 22 21 21 19 18 16 15 15 16 16 16 16 16 16 16 16 16 17 16 15 15 15 16 16 18 21 21 21 21 22 23 23 21 21 22 20 18 18 19 18 19 20 19 17 15 14 15 16 17 18 18 17 15 14 14 13 12 11 13 12 11 13 13 12 12 12 12 12 12 12 13 14 14 16
25 25 25 25 25 24 24 23 23 23 23 22 22 22 22 21 20 18 17 16 16 16 16 16 16 16 16 16 15 15 16 16 16 15 15 15 16 17 18 21 21 20 21 21 22 22 21 21 23 21 18 18 19 17 17 19 20 19 17 15 14 14 16 17 17 17 16 15 15 14 12 12 13 12 12 14 14 13 12 12 12 12 12 13 14 14 15 16
26 26 26 26 25 24 24 24 23 23 23 23 23 23 22 21 19 17 16 16 17 17 16 15 15 15 16 16 15 15 15 16 16 16 16 16 16 17 18 21 22 20 21 21 21 21 20 21 22 21 19 19 19 18 17 17 19 20 18 16 15 14 15 15 15 17 17 16 17 15 13 13 13 13 14 15 15 14 12 12 12 12 12 13 14 15 16 17
27 27 27 26 26 25 24 24 23 23 23 23 23 23 21 20 18 17 16 17 17 16 15 14 14 15 16 16 16 16 16 16 17 17 17 17 17 18 19 22 23 21 20 20 21 21 20 20 22 21 20 20 19 19 19 17 18 19 18 17 17 16 16 16 15 17 17 15 18 17 14 14 13 13 15 15 16 15 13 13 12 12 13 14 15 15 16 17
27 28 28 27 26 25 25 24 24 24 24 24 23 22 20 19 18 17 17 18 17 16 15 15 14 15 15 15 16 16 16 17 18 18 19 19 19 19 20 23 23 21 20 19 20 22 20 20 21 21 20 20 21 20 19 19 19 19 19 17 17 18 17 17 16 18 18 15 18 19 15 14 13 14 16 16 17 16 14 14 14 14 14 15 15 15 15 16
29 29 29 28 27 26 25 24 24 24 24 24 23 21 19 18 17 17 18 18 17 16 16 15 15 16 15 15 16 17 17 18 19 20 19 19 20 20 20 23 24 22 21 19 20 22 22 21 20 20 21 21 22 21 21 21 20 20 20 18 17 19 19 18 16 17 19 18 18 20 18 16 13 14 16 17 17 17 15 15 15 14 14 15 15 15 16 16
29 30 29 29 28 26 25 24 24 23 24 24 22 20 18 18 17 17 18 18 18 18 17 16 16 16 16 16 17 18 19 19 19 19 19 19 21 22 21 23 24 24 22 20 20 22 23 22 21 21 22 22 22 24 23 21 21 21 21 19 18 19 20 20 17 16 18 20 20 20 20 19 15 14 16 17 18 18 17 16 15 15 15 15 15 16 16 17
30 30 30 29 28 26 25 24 24 23 23 23 21 19 18 17 17 18 19 19 17 18 17 17 17 16 18 19 19 19 18 18 17 18 19 19 21 22 21 23 25 26 24 23 22 23 23 22 23 23 23 24 24 25 25 20 19 22 22 20 20 20 20 20 19 16 16 19 20 21 20 20 18 16 16 17 18 18 17 16 16 15 15 15 15 16 16 17
30 30 30 30 28 26 25 24 23 23 22 22 20 19 18 19 18 19 20 19 18 18 19 19 18 18 20 20 19 19 17 16 16 17 18 19 22 22 22 23 25 27 26 25 24 24 24 24 25 25 24 24 24 25 26 22 19 21 22 22 21 22 22 20 20 19 17 18 19 21 20 20 20 18 17 18 18 18 17 17 17 16 16 16 16 16 17 17
30 30 30 30 28 25 24 24 23 22 21 20 20 18 17 19 19 19 21 21 19 19 20 20 20 20 21 20 20 19 17 17 16 16 17 20 23 23 23 24 25 27 27 26 24 24 26 27 27 26 23 23 23 24 25 25 24 21 22 22 22 22 23 21 20 19 19 19 19 20 21 21 21 19 18 18 18 18 19 19 18 18 17 16 17 17 17 16
31 31 30 30 27 25 24 24 23 22 21 20 19 18 17 19 19 20 21 21 22 20 20 20 20 20 21 20 20 19 19 19 18 17 17 20 24 24 24 26 26 27 27 27 26 26 28 29 27 25 23 23 23 24 25 27 27 24 22 22 22 21 22 22 22 21 20 20 20 20 21 21 21 21 20 20 20 20 20 21 20 20 19 17 17 17 17 17
31 31 31 29 27 26 24 24 23 22 21 20 19 19 19 20 21 20 20 20 22 21 20 20 19 20 20 19 19 20 19 19 19 19 18 20 23 24 25 27 27 26 28 30 30 29 29 28 26 24 24 25 25 25 26 26 27 27 24 23 22 21 21 21 21 21 21 21 21 20 21 21 21 21 20 21 22 21 21 22 21 20 20 19 18 17 17 18
32 31 30 29 27 26 24 23 23 22 21 21 20 20 21 22 22 20 19 19 20 20 20 20 20 20 20 20 20 20 20 20 20 20 20 20 23 25 26 27 28 28 29 32 32 32 29 24 24 26 27 28 27 27 27 26 26 28 28 26 23 23 23 21 19 19 21 22 23 21 21 22 22 22 21 21 22 21 21 22 21 21 21 19 18 17 18 19
32 31 30 29 27 26 24 22 21 22 22 20 20 22 22 23 21 19 18 18 18 19 19 19 19 19 20 21 20 20 21 21 21 21 21 21 23 25 26 27 29 29 30 31 32 33 31 25 24 28 29 30 30 28 28 27 25 27 30 29 26 24 24 23 21 20 20 21 22 22 22 21 22 24 23 21 22 22 22 22 22 22 21 20 19 19 19 19
32 31 30 29 27 26 23 20 21 22 22 20 22 24 23 23 20 18 18 18 18 17 17 18 19 18 19 20 20 20 21 21 21 21 21 22 24 26 26 27 29 30 30 30 31 31 31 28 27 28 28 30 31 29 29 28 25 25 27 29 29 27 25 25 24 22 21 21 20 21 22 21 20 23 24 22 23 24 23 23 24 23 21 21 21 20 20 19
31 31 30 28 26 25 21 20 22 22 21 22 24 25 24 22 19 17 17 18 17 16 17 17 17 17 18 18 19 19 20 20 22 21 19 21 23 25 27 27 28 30 29 29 30 31 30 30 30 30 28 28 30 30 30 29 27 24 23 26 29 29 29 27 25 24 22 21 21 22 22 21 21 22 23 23 24 24 24 24 24 23 23 22 22 21 21 20
31 31 29 27 25 23 20 21 22 21 22 24 25 24 23 20 17 16 17 17 16 15 16 17 17 18 18 18 17 16 19 20 21 20 19 21 22 24 27 28 29 30 30 32 32 30 29 31 32 32 30 28 28 28 28 30 29 24 21 24 27 29 30 29 27 25 23 22 24 25 22 22 23 22 22 23 24 25 25 26 25 24 24 23 23 23 22 21
31 30 28 26 24 22 21 21 21 22 24 25 24 24 21 18 16 16 16 16 15 14 16 16 17 17 18 17 15 16 18 19 20 21 20 20 21 22 25 26 28 30 31 33 34 30 28 30 31 33 33 31 29 27 26 30 30 25 22 22 24 27 29 29 28 26 25 25 27 26 24 23 22 23 23 24 24 25 24 25 24 24 25 24 24 23 22 22
30 29 28 25 23 22 22 21 22 23 25 24 23 21 17 15 15 14 14 15 14 14 15 16 16 17 17 16 15 16 18 18 20 21 21 19 19 20 22 23 25 29 31 32 34 33 30 29 30 31 33 32 30 28 27 29 29 26 25 22 21 24 26 27 27 26 26 28 29 28 26 24 23 23 25 25 23 23 24 24 24 24 25 25 24 24 23 22
30 29 28 25 22 22 22 21 23 24 24 23 22 18 14 14 14 13 13 14 14 14 14 14 14 15 14 13 15 16 17 18 19 19 19 19 18 18 20 22 24 27 30 32 33 33 33 32 30 30 31 30 30 31 30 29 28 27 27 25 22 22 23 25 26 27 28 28 27 28 28 26 26 24 24 25 24 24 25 25 24 24 25 25 25 24 24 23
30 30 28 24 21 21 21 22 24 23 22 22 19 15 14 14 13 13 13 13 13 13 12 12 13 13 13 12 13 15 16 16 17 18 18 19 18 18 19 21 23 25 29 32 32 31 33 34 32 29 30 30 30 31 30 29 30 29 29 28 26 23 22 24 25 26 28 26 24 25 26 28 28 25 25 26 25 25 26 26 26 26 26 26 25 25 25 24
31 29 26 22 21 21 22 23 23 21 21 20 17 14 14 14 14 13 14 13 13 13 12 13 13 12 13 13 13 14 15 15 16 17 18 19 19 19 19 19 22 25 26 28 30 31 32 33 34 33 31 30 31 31 31 30 31 32 31 30 29 26 24 25 25 25 26 24 23 24 25 27 26 24 27 29 27 27 27 26 27 27 27 27 26 26 25 25
30 27 23 22 21 22 23 23 21 20 20 19 17 14 14 14 13 13 14 13 14 14 13 13 13 12 12 12 13 14 13 13 14 16 17 18 19 19 20 19 20 23 25 26 28 31 33 32 33 35 32 29 31 32 31 30 31 32 31 30 30 29 27 26 25 25 24 22 23 25 25 25 23 21 23 26 28 29 29 29 28 27 27 27 27 26 26 26
29 25 21 22 21 21 23 22 21 20 19 18 16 14 14 14 13 13 13 14 14 14 14 14 14 14 13 13 13 13 14 14 15 15 16 16 18 19 20 20 19 21 24 26 26 28 33 32 29 32 32 31 30 29 29 30 31 31 31 31 32 30 28 25 24 24 24 23 24 26 26 24 21 20 21 22 24 27 29 30 29 28 28 27 26 26 25 25
27 22 20 21 21 21 23 22 21 19 17 16 15 13 13 13 13 14 14 14 15 14 14 15 14 14 14 15 15 14 15 16 16 16 16 16 17 18 19 20 20 20 22 24 25 26 29 31 29 29 32 32 30 29 29 30 29 29 32 34 32 29 28 26 25 23 23 24 24 25 27 25 21 22 25 25 24 25 27 28 29 29 28 28 27 26 26 25
25 20 18 19 21 22 23 21 19 16 14 14 14 13 13 13 14 15 15 16 16 15 15 16 15 15 15 16 16 16 17 17 17 17 17 18 18 18 19 20 20 20 21 23 25 25 27 30 30 31 33 32 30 30 32 32 30 29 31 33 30 28 28 28 26 24 25 25 23 24 27 26 23 22 23 26 26 26 27 27 28 29 28 28 27 26 26 26
22 18 16 19 23 23 21 19 16 13 12 13 12 12 13 13 13 15 16 17 17 16 16 17 16 17 17 17 18 18 18 17 17 17 18 18 19 19 19 20 20 21 22 23 25 25 26 28 30 31 33 32 31 32 33 33 34 31 29 29 29 29 30 29 27 26 26 25 23 24 25 26 25 22 20 23 26 26 27 27 28 28 28 28 28 27 27 27
19 16 15 20 23 22 19 16 14 12 12 12 12 11 13 13 14 15 16 17 17 17 17 17 17 17 18 18 19 19 18 18 17 18 17 18 19 19 19 20 21 21 22 23 24 25 25 27 28 30 31 31 31 34 34 33 34 34 31 29 30 30 29 30 30 27 25 25 23 23 24 25 25 24 22 23 24 26 26 26 27 28 28 28 27 26 26 26
18 15 15 21 24 21 17 14 13 13 12 12 11 12 13 13 14 16 17 16 16 17 17 17 18 18 18 18 19 18 18 18 18 18 18 18 19 19 19 20 21 22 23 24 25 25 25 27 28 29 30 32 32 33 34 32 31 33 33 32 31 30 28 29 30 30 28 26 24 23 24 24 22 22 25 25 24 25 26 25 26 27 29 29 28 26 26 26
18 15 15 22 23 19 15 14 14 13 12 11 11 12 13 13 14 16 16 16 16 16 16 16 17 17 17 18 18 18 18 18 18 18 19 19 19 19 19 20 21 22 23 24 25 25 25 27 28 29 30 32 32 30 31 31 30 31 32 32 31 30 29 29 30 31 31 29 26 24 24 23 19 19 22 24 25 26 27 27 27 27 28 29 28 27 27 27
17 15 16 22 23 18 14 14 14 13 12 12 12 13 14 14 14 15 16 15 15 15 15 15 16 16 16 17 18 18 18 18 18 19 19 19 19 20 19 19 21 22 23 24 25 25 26 27 28 29 31 33 33 31 31 33 33 32 32 31 31 30 30 29 28 28 31 31 28 26 25 24 21 19 19 21 22 23 25 26 27 27 28 28 28 28 28 28
16 16 17 21 21 16 13 13 14 13 12 12 13 13 14 14 14 14 15 15 15 16 16 15 16 16 17 17 18 18 18 18 18 19 19 19 19 20 20 20 21 22 23 24 24 25 26 27 27 28 30 32 33 31 31 32 33 33 32 31 31 31 30 30 27 25 27 30 29 27 26 24 21 20 20 20 19 20 22 23 25 26 26 27 28 29 29 29
16 16 17 20 20 16 13 14 14 13 13 13 13 13 13 13 14 14 14 14 15 16 17 16 17 17 18 18 18 18 17 17 17 17 18 19 19 19 20 20 20 21 22 23 24 24 25 26 27 26 27 30 32 31 31 31 31 32 32 32 32 31 30 31 30 26 26 29 30 28 26 23 21 20 20 21 20 20 22 23 24 24 24 24 25 27 28 29
16 15 15 19 20 16 13 14 14 13 13 13 13 13 14 13 14 15 15 15 16 17 17 18 18 18 17 17 17 17 17 17 17 16 17 18 18 19 19 20 20 20 21 23 24 25 26 27 27 27 27 29 30 31 31 31 31 31 32 33 33 31 30 30 29 29 28 28 29 29 25 22 20 20 20 22 22 22 22 22 23 24 25 24 24 24 26 27
15 14 15 17 18 16 15 15 15 14 14 14 13 13 14 14 15 16 16 15 16 16 15 15 15 14 13 13 13 14 14 15 15 15 15 16 17 17 17 19 19 20 21 23 24 25 27 28 29 29 29 29 28 29 30 30 31 31 31 32 33 32 31 30 29 29 27 26 28 28 25 23 22 20 20 22 23 23 21 20 21 23 24 25 25 25 26 26
15 14 15 16 16 16 16 16 17 15 14 14 13 13 15 15 16 17 16 15 14 14 12 10 9 9 8 9 9 10 11 12 13 14 14 15 15 15 16 17 19 19 20 21 22 24 26 28 29 30 31 31 30 30 31 31 32 32 32 32 33 33 32 32 32 30 27 27 28 26 25 25 22 20 21 21 21 23 22 21 21 22 23 24 25 26 27 28
14 14 15 15 15 15 16 17 17 17 15 15 14 14 15 16 17 17 16 15 13 11 9 7 6 7 8 8 9 9 10 11 12 13 13 13 14 14 15 16 18 18 19 20 20 22 25 27 29 30 31 32 32 32 32 33 33 33 34 34 34 34 34 34 33 32 30 30 29 26 25 25 21 20 20 20 19 21 22 22 21 21 22 22 23 25 27 29
14 14 14 15 15 15 16 16 17 17 16 16 15 15 16 17 17 17 15 13 11 8 7 6 7 8 9 9 8 8 9 9 10 11 12 13 14 14 15 16 17 17 18 19 19 21 23 24 26 29 31 32 32 33 33 34 34 34 35 35 35 35 35 34 34 33 33 33 31 30 29 26 23 21 20 20 21 21 22 22 21 21 22 22 23 25 26 28
14 14 15 15 15 15 16 16 16 16 16 16 15 16 17 17 18 17 14 12 10 7 6 7 7 8 9 8 8 8 9 10 11 12 12 13 14 14 14 15 16 16 17 18 19 20 21 22 23 26 28 31 32 32 33 35 35 35 35 35 35 35 35 34 33 33 33 33 32 32 30 28 25 23 21 22 22 22 23 23 22 22 22 21 23 24 26 28
14 14 14 15 15 15 16 16 16 16 16 16 16 17 18 18 18 17 14 11 9 7 7 8 8 8 8 8 8 9 10 10 12 13 14 15 15 15 15 16 16 17 18 18 19 19 20 21 21 23 26 28 29 30 31 33 34 36 37 37 36 35 34 33 31 30 31 31 31 30 28 25 24 23 23 23 23 22 22 22 21 22 22 22 23 24 25 28
14 14 14 15 15 16 16 16 16 16 16 17 17 17 18 17 17 16 14 10 7 7 7 8 9 8 7 8 9 10 11 12 14 15 15 16 18 18 18 20 20 20 19 19 20 20 21 21 21 23 25 26 27 28 29 30 32 35 37 38 38 36 34 32 30 28 28 29 30 30 27 23 23 24 24 23 23 23 22 22 22 22 22 23 23 24 25 27
Wind_Direction
325 324 323 321 320 318 317 316 314 314 313 312 310 308 307 306 305 304 302 300 299 297 294 291 290 289 287 284 280 275 272 267 265 258 250 250 244 232 225 217 209 207 203 196 195 195 195 197 198 198 200 202 207 206 205 207 207 204 205 210 210 203 199 198 191 184 184 178 176 180 182 175 165 162 156 155 157 158 166 171 169 173 174 170 166 163 163 166
326 324 323 321 320 318 316 315 314 313 311 310 308 306 305 304 303 302 299 298 297 296 294 290 287 286 284 282 279 274 269 264 261 257 253 251 247 234 225 217 207 204 202 197 197 196 196 198 197 198 201 205 209 207 206 206 207 206 206 210 208 201 198 201 200 195 197 185 178 182 185 181 172 166 168 170 168 169 172 175 170 161 161 163 161 162 163 166
326 325 323 322 321 319 317 315 313 312 310 309 306 305 303 302 301 300 298 296 295 295 292 288 284 282 281 279 277 273 267 264 260 252 252 252 244 234 221 213 207 204 203 202 200 199 198 198 196 197 201 207 209 208 208 207 208 209 209 212 209 208 208 208 210 210 207 192 182 182 184 186 181 176 183 183 177 184 186 179 174 166 165 165 164 164 165 168
327 325 324 322 321 319 317 315 313 311 310 308 306 304 303 301 300 298 296 294 293 293 289 286 283 279 277 275 272 269 266 260 255 248 250 257 249 233 218 210 206 204 206 207 204 201 199 197 196 197 201 207 208 208 210 208 208 209 212 213 206 206 210 205 204 204 199 192 184 181 183 187 185 183 186 179 178 196 199 186 178 168 165 167 168 168 169 171
327 326 324 323 321 319 318 316 313 311 309 307 305 304 302 301 299 297 296 293 291 290 287 284 281 279 275 272 268 264 262 252 247 253 257 260 254 234 217 208 204 204 205 207 205 203 199 197 197 200 206 209 207 209 213 211 211 214 215 216 211 209 212 209 202 190 185 186 180 180 186 185 182 186 184 180 184 195 194 189 180 170 168 169 170 171 173 174
328 327 326 324 322 320 319 317 314 311 309 307 305 304 302 300 299 297 295 292 291 288 285 281 279 278 274 271 267 261 255 249 250 263 267 259 249 232 216 208 204 204 204 205 204 203 200 198 199 204 209 211 209 211 214 211 214 219 218 217 217 216 217 219 215 206 199 194 187 187 191 186 185 194 191 191 197 189 178 180 177 175 173 171 171 173 176 178
328 327 326 324 323 321 319 317 315 312 309 307 305 304 302 300 298 296 294 291 289 287 283 278 276 275 273 270 266 260 253 251 253 265 274 258 242 227 213 208 205 203 204 205 203 202 201 201 204 206 208 212 213 213 215 212 216 222 222 221 219 218 220 223 224 224 220 210 203 199 195 191 194 200 197 200 205 189 173 175 177 177 174 173 174 175 177 179
328 327 325 324 322 320 319 317 315 312 309 307 305 304 302 300 298 295 293 291 288 284 280 277 274 272 270 270 265 260 253 249 248 259 271 256 238 223 210 208 207 204 205 206 205 203 202 203 207 208 210 214 213 212 213 213 217 222 224 224 220 219 221 221 223 226 224 217 211 204 201 201 201 201 198 202 204 188 177 174 175 176 173 176 178 177 177 179
329 327 325 323 321 320 318 317 314 312 309 307 305 303 302 300 298 295 293 291 287 282 278 275 273 270 269 269 265 258 251 245 245 256 263 251 236 221 210 209 207 206 207 207 207 205 204 205 207 209 214 215 212 212 213 214 218 221 224 226 223 222 222 221 223 225 224 218 212 209 213 212 204 204 205 201 196 183 175 173 174 176 174 177 180 179 178 179
330 328 326 324 321 320 318 316 314 311 309 306 304 303 301 300 297 295 293 290 286 280 278 274 270 268 268 268 262 254 250 247 247 256 259 248 235 222 217 214 208 207 208 207 208 208 208 208 207 210 216 215 214 214 212 215 220 221 224 228 228 229 228 225 225 225 225 221 217 218 223 216 202 208 210 195 187 179 172 173 175 177 177 178 182 182 181 181
329 328 326 324 322 320 318 316 314 311 309 306 304 302 300 299 297 295 293 289 285 281 277 274 270 268 268 266 258 252 252 250 250 256 256 245 235 226 221 216 211 210 208 208 209 210 212 210 205 210 217 216 215 216 216 218 223 224 225 227 227 228 229 225 223 224 223 219 218 220 224 215 201 210 209 187 182 180 172 172 177 179 179 181 182 183 185 184
328 327 326 324 321 319 317 316 314 311 309 306 304 302 300 298 296 293 291 287 283 281 278 275 272 269 267 262 255 254 254 252 251 255 253 244 237 232 224 217 215 214 210 209 210 211 213 211 206 210 217 216 214 218 220 219 222 226 228 230 229 228 228 224 220 220 218 216 214 215 222 215 204 207 197 182 182 181 175 176 180 182 182 184 184 185 187 186
328 327 326 324 321 319 317 315 314 312 309 307 304 303 301 298 295 291 287 284 282 281 278 275 272 268 265 261 257 257 255 250 250 253 251 243 237 233 225 218 217 216 214 212 211 212 214 212 210 211 217 217 215 219 222 219 220 224 227 229 229 229 225 218 216 217 216 216 209 210 222 218 207 204 190 182 184 181 179 181 184 186 185 186 188 187 189 188
328 327 326 325 322 319 317 316 314 313 310 308 306 304 302 298 294 289 284 284 284 280 277 274 270 267 264 260 259 261 257 249 249 253 249 244 238 231 225 218 216 217 215 213 212 212 214 214 214 216 219 221 220 222 224 221 219 220 223 225 225 225 220 210 210 213 214 213 205 208 223 220 209 203 193 187 187 185 185 188 188 189 188 188 190 190 191 192
328 327 326 325 322 319 318 316 314 313 311 309 308 306 302 297 292 286 284 287 284 277 276 275 270 267 264 261 261 262 260 252 252 253 247 243 239 232 225 217 215 216 213 213 213 213 215 215 215 218 221 222 223 223 223 222 221 219 220 222 221 220 219 213 209 211 213 211 205 209 220 220 213 204 197 194 193 192 192 193 193 192 190 190 192 193 195 195
328 326 326 324 322 320 318 316 314 313 312 310 309 306 301 296 290 284 287 289 280 274 277 278 271 265 264 264 263 262 263 258 255 253 245 241 239 232 224 217 215 216 214 214 213 213 216 216 217 221 222 223 223 222 221 222 222 220 219 222 219 216 218 216 211 212 214 212 208 212 220 221 215 204 200 198 197 197 198 197 195 194 193 194 195 195 196 196
328 326 325 324 323 320 317 316 315 314 313 312 309 305 300 294 286 281 289 289 277 274 278 278 271 264 263 267 267 267 270 263 255 250 244 240 235 228 221 217 216 215 214 214 212 212 215 218 219 221 223 223 222 220 222 222 220 219 220 222 220 217 218 217 214 213 214 214 213 215 221 223 216 206 203 201 200 201 202 200 197 196 195 196 197 197 197 196
327 326 325 324 323 320 317 315 315 314 315 313 309 303 299 294 282 280 289 288 277 273 274 277 274 263 261 272 273 272 273 265 255 248 243 237 230 223 220 218 216 213 213 215 214 213 215 219 220 222 222 222 221 219 220 223 221 219 219 220 220 219 220 219 216 213 213 216 217 217 221 224 219 212 208 206 203 204 205 203 200 199 198 197 197 199 198 197
326 325 324 324 323 319 316 315 315 314 315 316 311 301 299 297 284 280 288 286 278 274 271 275 275 264 264 273 275 273 270 263 255 246 240 235 227 221 220 220 215 213 216 217 217 216 216 219 221 223 223 221 221 220 221 224 224 221 220 221 220 219 221 220 217 216 214 217 219 219 222 224 222 217 213 210 207 207 207 205 204 203 201 200 199 200 199 198
325 324 323 323 322 319 316 315 315 314 315 317 313 303 302 302 289 282 289 287 280 277 273 272 270 265 268 272 274 275 268 258 255 249 242 235 224 219 220 220 216 216 220 219 218 217 217 221 222 222 222 221 220 220 222 225 225 223 221 222 222 222 223 221 219 220 219 220 221 221 224 226 225 220 215 213 211 211 209 206 206 205 203 202 200 201 200 200
324 324 323 322 321 318 315 315 314 313 313 314 315 309 305 304 294 286 289 285 279 277 273 271 268 266 270 270 271 275 266 257 256 253 248 235 223 221 222 220 219 221 222 220 219 219 220 224 224 222 222 221 220 221 222 224 225 225 223 222 223 223 224 223 223 224 222 223 224 223 225 226 226 223 216 213 214 214 211 207 206 204 204 203 201 201 202 201
325 324 323 322 320 317 314 313 313 312 311 312 316 313 305 303 296 288 285 282 280 278 273 272 268 268 271 266 266 270 262 257 257 256 252 237 226 227 225 223 224 224 221 219 221 222 223 227 225 221 221 221 222 222 222 223 224 225 224 223 223 222 224 226 226 226 224 225 227 226 227 227 226 224 218 213 214 216 213 209 206 203 203 204 202 201 201 200
326 325 324 323 320 317 313 312 312 310 309 310 313 312 306 304 298 289 281 279 280 278 274 272 268 271 273 265 265 268 259 254 255 256 254 240 232 233 229 225 226 225 222 221 222 223 225 228 224 220 219 220 222 222 221 223 224 224 223 223 223 220 221 224 222 224 226 227 229 230 231 230 227 225 220 215 216 217 215 213 211 207 205 206 205 203 201 198
327 326 325 324 321 318 314 311 312 311 309 308 309 310 308 305 301 290 281 278 278 276 274 272 269 272 273 267 267 265 256 252 252 254 252 243 237 235 232 228 226 226 225 223 224 226 228 228 221 219 219 220 221 221 221 223 224 225 224 223 223 221 222 224 224 228 230 228 228 231 235 234 228 225 223 218 218 219 217 215 214 212 210 210 208 205 202 199
327 326 326 325 322 319 314 311 314 314 310 307 308 309 308 306 300 289 283 281 278 274 271 270 269 271 271 268 268 263 253 250 252 253 250 245 240 236 233 230 228 228 225 224 227 229 229 225 218 218 220 220 221 221 221 222 224 226 225 224 224 223 224 226 229 232 231 228 225 226 233 235 228 225 224 219 219 221 218 215 214 212 211 211 209 206 203 201
326 326 325 324 322 319 313 310 313 313 310 307 308 308 307 304 297 286 284 282 277 273 271 270 269 271 272 270 270 262 250 250 253 252 249 245 241 235 233 231 230 230 225 224 229 231 229 223 219 220 220 219 222 223 221 220 224 227 225 223 223 224 226 227 229 230 231 229 225 225 230 233 229 226 224 220 219 220 218 215 214 212 210 210 209 207 204 202
326 326 325 323 321 319 314 310 311 311 309 307 307 308 306 301 292 283 283 280 276 273 272 271 269 273 274 271 272 259 249 255 255 251 253 249 241 236 234 232 230 230 226 224 230 230 226 222 220 221 221 220 222 224 221 218 223 227 224 221 221 223 225 227 229 231 232 234 232 229 230 234 233 227 224 222 221 221 218 215 214 212 211 211 210 208 205 203
325 325 324 321 319 317 312 309 310 309 307 306 307 307 304 298 287 283 283 278 276 273 272 271 268 273 275 272 275 262 253 259 253 251 259 252 242 237 235 233 231 229 225 224 229 228 223 222 222 221 222 223 223 223 220 218 222 224 220 221 221 222 224 226 229 232 234 236 235 230 227 232 234 227 223 222 221 221 218 215 213 211 212 212 210 208 207 205
325 324 322 319 315 312 310 309 308 308 309 308 308 306 301 293 285 284 282 277 277 275 272 272 269 274 277 271 274 270 260 257 252 254 258 250 244 239 235 236 234 231 227 227 230 229 225 224 223 222 224 225 223 223 220 218 222 222 219 223 223 222 223 224 227 230 232 234 233 229 225 231 234 227 222 221 219 219 217 215 213 212 212 212 209 208 208 206
325 323 320 316 312 310 309 307 307 310 311 309 309 306 297 290 286 283 280 276 279 278 274 276 273 273 278 270 268 271 264 259 257 257 255 250 247 242 237 236 235 233 230 229 231 231 229 228 225 224 226 224 221 222 220 218 220 220 219 221 221 220 220 221 224 225 230 232 231 229 225 229 235 229 222 221 218 217 215 214 213 212 213 212 210 210 209 208
324 321 317 313 309 310 310 308 309 311 312 310 310 304 292 290 286 278 279 278 279 280 276 279 278 274 279 274 269 271 266 261 262 259 253 250 248 246 241 236 235 233 229 228 230 229 228 227 225 225 225 221 219 221 220 218 218 217 218 218 218 218 217 219 220 220 227 232 229 227 225 227 232 228 221 221 218 214 214 213 212 211 212 212 211 211 211 210
322 319 316 312 307 310 311 310 310 311 311 311 309 300 290 289 282 276 281 280 278 281 278 281 286 280 278 278 278 278 268 262 264 258 251 247 244 243 240 236 235 232 228 228 228 227 227 226 223 224 223 218 217 219 218 217 217 216 216 216 217 217 216 218 218 220 227 231 227 223 223 227 231 230 225 222 218 215 214 214 213 212 212 212 212 212 211 211
322 319 316 313 309 310 311 309 308 308 309 310 306 297 290 285 282 279 281 281 278 281 279 278 284 284 280 278 281 280 268 263 266 259 250 246 241 238 236 238 237 233 231 230 227 225 227 225 222 222 222 219 216 216 217 216 215 215 214 214 215 216 218 220 220 223 227 230 228 222 224 231 233 231 227 224 221 218 215 215 214 213 212 212 212 213 212 211
323 319 316 316 312 310 311 309 307 306 307 308 303 294 286 283 284 282 280 278 276 278 279 276 278 282 283 279 279 279 269 265 269 262 252 246 242 238 237 240 241 237 234 232 228 225 224 224 222 220 221 222 218 217 219 216 215 216 215 216 218 218 220 222 222 225 228 230 227 220 223 230 227 223 224 222 221 219 217 216 214 213 213 212 213 214 213 211
324 319 316 318 316 314 314 311 307 304 302 304 301 292 284 283 284 282 280 278 274 274 275 275 275 276 278 276 276 278 272 270 272 265 255 247 242 241 239 240 243 240 235 232 230 227 225 225 223 221 222 222 219 219 220 217 216 217 215 217 220 219 220 224 227 228 230 233 229 221 224 230 227 227 227 223 221 218 217 217 214 213 213 212 214 214 213 213
325 320 317 322 322 321 320 315 310 304 297 297 297 290 285 285 284 281 281 280 275 274 273 274 277 276 274 272 272 277 275 272 273 265 256 251 246 243 240 239 241 240 235 233 231 229 227 224 223 224 222 218 219 220 218 218 217 215 214 217 219 218 220 225 228 227 228 232 230 224 229 233 233 234 229 223 223 218 216 217 215 214 213 211 213 213 214 214
328 324 321 327 328 326 323 319 312 305 296 295 293 290 286 285 286 283 281 280 275 274 274 273 276 275 273 272 271 278 277 271 270 265 258 254 250 246 242 238 239 239 237 234 231 229 229 227 225 223 219 218 222 222 220 220 218 215 216 216 215 217 221 223 225 224 225 229 228 224 229 231 228 228 224 219 221 219 216 215 215 214 214 213 213 213 214 214
330 327 325 331 331 328 325 323 318 308 302 300 295 292 290 287 289 288 284 280 275 274 274 272 274 273 271 271 271 276 277 271 270 266 259 255 251 248 245 241 238 240 239 236 232 229 231 230 225 220 220 222 222 220 219 219 219 219 219 215 213 217 219 218 221 223 224 227 228 226 229 230 224 221 219 215 216 218 217 216 215 214 214 216 216 215 214 213
333 329 328 333 333 330 328 327 322 315 310 306 300 297 296 292 295 296 291 284 277 276 275 272 273 272 270 271 271 272 273 271 269 265 258 255 252 248 247 244 241 242 242 237 232 231 230 228 224 219 220 223 220 217 217 217 216 218 220 217 216 219 220 218 220 223 224 227 229 228 228 229 225 221 221 218 216 217 217 216 216 215 214 216 216 215 214 214
335 330 330 336 336 332 329 328 328 324 318 311 305 301 299 296 298 302 300 291 282 279 278 273 272 271 270 270 269 269 269 268 266 262 257 256 253 248 246 246 244 244 244 238 232 231 229 226 225 221 220 221 218 216 215 215 214 215 216 217 216 217 219 221 222 222 224 227 228 228 229 229 223 219 223 224 220 219 218 216 216 216 216 216 215 215 214 213
336 333 334 338 338 334 331 333 334 329 321 315 310 304 303 302 302 305 306 300 290 285 283 278 276 273 270 269 268 267 267 266 263 260 257 253 252 250 246 245 246 246 243 237 231 230 228 225 226 224 221 219 217 215 215 215 215 214 215 216 216 216 217 219 221 220 222 226 227 227 231 229 219 214 220 222 220 219 219 219 218 216 216 217 216 215 215 214
339 339 338 340 341 337 336 338 335 330 323 318 312 305 304 306 305 305 307 305 297 292 288 284 281 278 274 271 269 268 269 266 262 259 255 251 251 252 248 245 247 246 241 235 231 230 229 226 226 226 223 222 221 220 219 218 216 215 216 216 217 218 218 218 221 219 220 224 226 228 233 229 219 213 216 219 219 219 219 220 219 218 215 216 217 216 216 216
343 341 341 344 344 340 341 343 337 333 328 320 315 310 308 310 309 306 306 305 299 294 290 285 283 280 276 275 272 269 270 268 261 256 253 252 252 251 247 245 247 245 239 234 230 229 228 226 224 225 224 223 222 219 217 216 213 213 215 216 216 218 218 220 223 222 222 222 222 226 230 228 220 216 217 219 217 219 222 221 220 221 219 217 218 218 216 217
344 342 345 351 352 348 347 346 340 336 332 325 323 323 319 316 316 311 307 305 300 293 288 285 285 281 278 277 274 270 270 266 260 256 254 254 253 249 246 244 244 242 237 232 230 228 227 223 221 221 219 217 216 214 213 212 212 214 214 214 215 218 220 222 222 223 225 222 220 224 228 226 220 217 218 220 217 216 219 220 219 221 221 221 221 220 218 218
344 345 348 354 360 3 358 351 346 341 338 333 330 328 324 320 321 318 313 309 303 295 289 285 284 281 278 277 272 268 268 263 259 258 256 256 254 250 246 241 239 239 237 235 234 230 227 223 220 219 216 213 211 211 212 212 212 214 213 214 216 217 219 221 220 221 223 222 221 224 227 224 219 216 218 220 221 218 215 215 216 218 220 220 220 220 220 220
347 350 350 352 360 6 3 357 353 347 343 339 334 332 330 326 324 323 319 314 309 304 296 288 285 282 280 279 272 267 266 260 255 257 258 258 256 249 243 237 235 236 237 236 234 229 226 224 222 221 221 218 216 214 214 215 215 215 215 215 215 215 217 219 218 219 222 223 223 224 225 225 221 218 218 219 222 221 215 210 212 215 217 218 218 218 219 219
351 353 353 352 355 358 357 357 355 352 347 342 337 336 336 333 330 328 324 318 313 309 301 293 290 287 283 283 276 269 267 261 257 259 260 260 256 248 242 237 233 235 236 234 231 227 225 225 224 224 224 224 223 222 221 220 219 218 219 218 216 216 217 218 219 221 222 224 224 223 224 226 224 220 219 218 218 219 217 213 213 214 215 216 218 218 218 218
355 355 355 354 354 355 354 353 352 352 350 346 342 340 340 340 338 334 329 323 318 313 305 295 292 291 287 284 277 271 272 268 261 260 259 258 256 253 249 242 236 235 233 230 228 226 226 226 225 225 226 225 225 224 223 221 220 220 220 220 220 219 218 219 221 223 224 224 225 227 228 228 225 224 226 224 222 223 225 223 220 220 221 221 222 222 221 220
358 356 356 356 355 354 353 351 350 351 352 349 347 346 344 343 342 338 331 324 320 316 311 303 297 296 292 285 277 273 275 272 264 261 261 260 259 256 252 246 239 234 230 228 227 226 226 226 226 226 227 226 225 224 222 222 222 222 220 220 220 220 220 222 223 224 225 226 227 230 232 230 226 227 231 231 230 229 230 229 226 225 225 226 226 227 226 224
358 357 357 356 355 353 352 352 351 352 353 352 351 350 348 346 346 343 335 326 317 312 312 310 305 300 293 286 278 273 274 273 268 266 265 263 261 255 250 246 240 234 230 228 227 226 225 226 226 226 226 225 223 222 222 221 221 222 221 219 219 220 221 222 223 224 225 226 227 228 232 231 226 227 232 234 232 229 228 228 228 226 227 228 230 231 231 230
359 359 358 356 356 355 354 354 354 354 355 355 354 352 350 349 349 346 340 330 317 309 309 311 308 302 292 285 281 277 276 275 272 270 268 264 261 256 249 244 240 237 234 231 229 227 226 228 229 226 225 224 220 219 220 219 220 222 222 219 218 218 218 219 221 222 224 225 225 224 226 226 225 229 233 232 229 227 226 228 229 229 231 232 233 234 234 233
0 1 1 358 357 356 356 356 357 358 358 356 354 353 351 351 352 350 347 343 330 315 312 312 309 304 293 286 286 286 285 282 278 275 272 266 261 256 251 246 242 239 237 234 233 230 228 230 229 226 224 222 217 216 217 218 219 220 219 216 214 215 215 215 217 220 222 223 223 221 221 223 226 230 231 228 225 225 226 228 230 232 234 235 235 236 235 235